• In Denmark
  • List of Countries
  • For 7 days
  • Water Temperature
  • Satellite Maps
  • Weather Map
  • Weather Widgets
  • user-avatar
    Login

    Hourly Weather Albany

    Today, 20 June, Wednesday

    Time Temperature Precipitation Wind Pressure Humidity
    00:00 +13°C° 0.1 mm 4 mps 764 mmHg 88%
    01:00 +13°C° 0.1 mm 4 mps 764 mmHg 88%
    02:00 +13°C° 0 mm 4 mps 764 mmHg 88%
    03:00 +13°C° 0.1 mm 4 mps 764 mmHg 89%
    04:00 +12°C° 0.1 mm 4 mps 764 mmHg 89%
    05:00 +12°C° 0.1 mm 4 mps 764 mmHg 90%
    06:00 +12°C° 0 mm 4 mps 764 mmHg 90%
    07:00 +12°C° 0 mm 4 mps 765 mmHg 90%
    08:00 +12°C° 0 mm 5 mps 765 mmHg 89%
    09:00 +13°C° 0.1 mm 5 mps 765 mmHg 85%
    10:00 +15°C° 0.1 mm 5 mps 765 mmHg 80%
    11:00 +16°C° 0.1 mm 5 mps 765 mmHg 75%
    12:00 +16°C° 0.2 mm 5 mps 765 mmHg 74%
    13:00 +17°C° 0.2 mm 5 mps 764 mmHg 73%
    14:00 +17°C° 0.2 mm 5 mps 764 mmHg 73%
    15:00 +16°C° 0.1 mm 5 mps 764 mmHg 75%
    16:00 +15°C° 0.1 mm 5 mps 765 mmHg 78%
    17:00 +15°C° 0.1 mm 5 mps 765 mmHg 80%
    18:00 +14°C° 0.1 mm 4 mps 765 mmHg 81%
    19:00 +14°C° 0.1 mm 4 mps 765 mmHg 82%
    20:00 +14°C° 0.1 mm 4 mps 765 mmHg 83%
    21:00 +13°C° 0 mm 4 mps 765 mmHg 84%
    22:00 +12°C° 0 mm 4 mps 765 mmHg 86%
    23:00 +12°C° 0 mm 4 mps 765 mmHg 87%

    Tomorrow, 21 June, Thursday

    Time Temperature Precipitation Wind Pressure Humidity
    00:00 +12°C° 0.2 mm 4 mps 765 mmHg 87%
    01:00 +12°C° 0.2 mm 4 mps 765 mmHg 87%
    02:00 +12°C° 0.2 mm 5 mps 765 mmHg 87%
    03:00 +12°C° 0.2 mm 4 mps 765 mmHg 87%
    04:00 +12°C° 0.2 mm 4 mps 765 mmHg 87%
    05:00 +12°C° 0.2 mm 4 mps 765 mmHg 88%
    06:00 +12°C° 0.1 mm 4 mps 766 mmHg 88%
    07:00 +12°C° 0.1 mm 4 mps 766 mmHg 88%
    08:00 +12°C° 0.1 mm 4 mps 766 mmHg 89%
    09:00 +14°C° 0.1 mm 4 mps 766 mmHg 84%
    10:00 +15°C° 0.1 mm 4 mps 766 mmHg 80%
    11:00 +17°C° 0.1 mm 3 mps 766 mmHg 76%
    12:00 +17°C° 0.1 mm 3 mps 766 mmHg 75%
    13:00 +17°C° 0.1 mm 3 mps 766 mmHg 74%
    14:00 +17°C° 0.1 mm 3 mps 765 mmHg 73%
    15:00 +17°C° 0.1 mm 3 mps 765 mmHg 75%
    16:00 +16°C° 0.1 mm 3 mps 766 mmHg 77%
    17:00 +14°C° 0.1 mm 3 mps 766 mmHg 80%
    18:00 +14°C° 0 mm 2 mps 766 mmHg 80%
    19:00 +14°C° 0 mm 2 mps 766 mmHg 81%
    20:00 +13°C° 0 mm 2 mps 767 mmHg 81%
    21:00 +13°C° 0 mm 2 mps 767 mmHg 82%
    22:00 +13°C° 0 mm 2 mps 767 mmHg 84%
    23:00 +12°C° 0 mm 2 mps 767 mmHg 85%

    Day after tomorrow, 22 June, Friday

    Time Temperature Precipitation Wind Pressure Humidity
    00:00 +12°C° 0 mm 2 mps 767 mmHg 86%
    01:00 +12°C° 0 mm 2 mps 767 mmHg 87%
    02:00 +10°C° 0 mm 2 mps 767 mmHg 89%
    03:00 +10°C° 0 mm 2 mps 767 mmHg 89%
    04:00 +10°C° 0 mm 2 mps 767 mmHg 89%
    05:00 +10°C° 0 mm 2 mps 767 mmHg 90%
    06:00 +10°C° 0 mm 2 mps 767 mmHg 89%
    07:00 +10°C° 0 mm 2 mps 768 mmHg 89%
    08:00 +10°C° 0 mm 2 mps 768 mmHg 89%
    09:00 +13°C° 0 mm 1 mps 768 mmHg 82%
    10:00 +15°C° 0 mm 1 mps 769 mmHg 75%
    11:00 +18°C° 0 mm 1 mps 769 mmHg 68%
    12:00 +18°C° 0 mm 1 mps 768 mmHg 66%
    13:00 +18°C° 0 mm 1 mps 768 mmHg 64%
    14:00 +19°C° 0 mm 1 mps 768 mmHg 62%
    15:00 +17°C° 0 mm 2 mps 768 mmHg 67%
    16:00 +16°C° 0 mm 2 mps 768 mmHg 72%
    17:00 +15°C° 0 mm 2 mps 768 mmHg 77%
    18:00 +14°C° 0 mm 2 mps 768 mmHg 81%
    19:00 +14°C° 0 mm 2 mps 769 mmHg 84%
    20:00 +13°C° 0 mm 2 mps 769 mmHg 88%
    21:00 +13°C° 0 mm 2 mps 769 mmHg 89%
    22:00 +13°C° 0 mm 2 mps 769 mmHg 90%
    23:00 +12°C° 0 mm 2 mps 770 mmHg 91%

    23 June, Saturday

    Time Temperature Precipitation Wind Pressure Humidity
    00:00 +12°C° 0 mm 2 mps 769 mmHg 92%
    01:00 +12°C° 0 mm 2 mps 769 mmHg 93%
    02:00 +12°C° 0 mm 2 mps 769 mmHg 94%
    03:00 +10°C° 0 mm 2 mps 769 mmHg 94%
    04:00 +10°C° 0 mm 2 mps 769 mmHg 94%
    05:00 +10°C° 0 mm 2 mps 769 mmHg 94%
    06:00 +10°C° 0 mm 2 mps 769 mmHg 93%
    07:00 +10°C° 0 mm 2 mps 770 mmHg 92%
    08:00 +10°C° 0 mm 2 mps 770 mmHg 92%
    09:00 +13°C° 0 mm 2 mps 770 mmHg 83%
    10:00 +15°C° 0 mm 2 mps 770 mmHg 74%
    11:00 +17°C° 0 mm 2 mps 770 mmHg 65%
    12:00 +18°C° 0 mm 2 mps 770 mmHg 61%
    13:00 +19°C° 0 mm 2 mps 769 mmHg 57%
    14:00 +19°C° 0 mm 2 mps 768 mmHg 53%
    15:00 +18°C° 0 mm 2 mps 769 mmHg 57%
    16:00 +17°C° 0 mm 2 mps 769 mmHg 61%
    17:00 +16°C° 0 mm 2 mps 769 mmHg 65%
    18:00 +15°C° 0 mm 2 mps 769 mmHg 68%
    19:00 +14°C° 0 mm 3 mps 770 mmHg 71%
    20:00 +13°C° 0 mm 3 mps 770 mmHg 73%
    21:00 +13°C° 0 mm 3 mps 770 mmHg 75%
    22:00 +12°C° 0 mm 4 mps 770 mmHg 77%
    23:00 +12°C° 0 mm 4 mps 770 mmHg 79%

    24 June, Sunday

    Time Temperature Precipitation Wind Pressure Humidity
    00:00 +12°C° 0 mm 4 mps 770 mmHg 78%
    01:00 +11°C° 0 mm 4 mps 769 mmHg 78%
    02:00 +11°C° 0 mm 4 mps 769 mmHg 78%
    03:00 +11°C° 0 mm 4 mps 769 mmHg 78%
    04:00 +10°C° 0 mm 4 mps 769 mmHg 78%
    05:00 +10°C° 0 mm 4 mps 769 mmHg 78%
    06:00 +10°C° 0 mm 4 mps 769 mmHg 76%
    07:00 +10°C° 0 mm 4 mps 770 mmHg 75%
    08:00 +10°C° 0 mm 4 mps 770 mmHg 73%
    09:00 +12°C° 0 mm 4 mps 770 mmHg 67%
    10:00 +14°C° 0 mm 4 mps 770 mmHg 60%
    11:00 +18°C° 0 mm 4 mps 770 mmHg 54%
    12:00 +18°C° 0 mm 3 mps 769 mmHg 51%
    13:00 +19°C° 0 mm 3 mps 768 mmHg 49%
    14:00 +20°C° 0 mm 3 mps 768 mmHg 47%
    15:00 +19°C° 0 mm 3 mps 768 mmHg 51%
    16:00 +18°C° 0 mm 2 mps 768 mmHg 55%
    17:00 +16°C° 0 mm 2 mps 768 mmHg 59%
    18:00 +14°C° 0 mm 3 mps 768 mmHg 62%
    19:00 +14°C° 0 mm 3 mps 768 mmHg 65%
    20:00 +13°C° 0 mm 3 mps 769 mmHg 67%
    21:00 +12°C° 0 mm 3 mps 769 mmHg 67%
    22:00 +12°C° 0 mm 3 mps 768 mmHg 66%
    23:00 +11°C° 0 mm 4 mps 768 mmHg 66%

    25 June, Monday

    Time Temperature Precipitation Wind Pressure Humidity
    00:00 +11°C° 0 mm 4 mps 768 mmHg 66%
    01:00 +11°C° 0 mm 4 mps 768 mmHg 65%
    02:00 +11°C° 0 mm 4 mps 768 mmHg 65%
    03:00 +11°C° 0 mm 4 mps 767 mmHg 66%
    04:00 +11°C° 0 mm 4 mps 767 mmHg 67%
    05:00 +10°C° 0 mm 4 mps 767 mmHg 68%
    06:00 +10°C° 0 mm 5 mps 767 mmHg 68%
    07:00 +10°C° 0 mm 5 mps 767 mmHg 69%
    08:00 +10°C° 0 mm 6 mps 767 mmHg 69%
    09:00 +13°C° 0 mm 6 mps 767 mmHg 63%
    10:00 +15°C° 0 mm 6 mps 767 mmHg 56%
    11:00 +17°C° 0 mm 7 mps 766 mmHg 50%
    12:00 +19°C° 0 mm 6 mps 766 mmHg 48%
    13:00 +20°C° 0 mm 6 mps 765 mmHg 46%
    14:00 +20°C° 0 mm 5 mps 764 mmHg 44%
    15:00 +19°C° 0 mm 5 mps 764 mmHg 48%
    16:00 +18°C° 0 mm 4 mps 764 mmHg 51%
    17:00 +17°C° 0 mm 4 mps 764 mmHg 55%
    18:00 +15°C° 0 mm 4 mps 764 mmHg 58%
    19:00 +14°C° 0 mm 4 mps 765 mmHg 61%
    20:00 +13°C° 0 mm 5 mps 765 mmHg 64%
    21:00 +13°C° 0 mm 5 mps 765 mmHg 63%
    22:00 +13°C° 0 mm 5 mps 764 mmHg 62%
    23:00 +13°C° 0 mm 6 mps 764 mmHg 61%
    Show more